Showing default

SKYSAT 2, 40072

Orbit data source: Space-Track

SKYSAT 2, 40072 is a payload satellite owned by Skybox (US) in SSO that was launched on Tue, 08 Jul 2014 UTC via a SOYUZ-2-1B launch vehicle from the Tyuratam Missile And Space Complex (TTMTR). Payload-class satellites include a variety of spacecraft equipped with specific instruments for various scientific and technological missions. These include communications satellites like Starlink; space stations such as the ISS; scientific satellites like the Hubble; Earth observation satellites from companies like Planet Labs, Umbra, and HawkEye 360; GPS; miniature CubeSats for education and research; and military/defense satellites.

Loading next visibility...
Identifier
40072, 2014-037D
Orbit
SSO
Last TLE update
14 hours ago
Origin
Manufacturer
Skybox
Mission
Operational Commercial Imaging
Bus & Motor
SKYSAT, Unknown motor
Mass
82 kg wet, 82 kg dry
Launch date (UTC)
2014-07-08 (11 years ago)
Launch vehicle
SOYUZ-2-1B
Launch site
Tyuratam Missile And Space Complex (TTMTR)
Object type
Payload
Rocket body
Debris
Shape & HBR
Box, 0.8 m
Radar Cross Section
0.800 m², Medium (>0.1 m² and < 1m²)

Expand to show TLE details & history

TLE from 14 hours ago
0 SKYSAT 2
1 40072U 14037D   25183.56267895  .00000893  00000-0  10751-3 0  9992
2 40072  98.3424 119.0040 0005381 345.5983  14.5077 14.86577274593994
Epoch: 2025-07-02T13:30Z
TLE epoch observation values (Epoch: 2025-07-02T13:30:15.461Z)
Latitude
-0.00001°
Longitude
-4.40241°
Altitude
608.016 km
Speed
7.557 km/s
True Right ascension
07h 56m 00s
True Declination
0° 00' 00"
Sunlit
Object was in daylight at epoch
Visualization orbit readout
Latitude
13.00955°
Longitude
178.12622°
Altitude
614.652 km
Speed
7.551 km/s
Apparent Right ascension
22h 44m 55s
Apparent Declination
-18° 29' 53"
Sunlit
Object is in full shadow
Visualization observer readout
Local Sidereal Time
14:55:41
Azimuth
87.564° E
Elevation
-32.5°
Doppler factor
1
Orbital elements
Apogee altitude
609.45 km
Perigee altitude
601.934 km
Semi-major axis
6,983.829 km
Eccentricity
0.00054
Inclination
98.3424°
RAAN
119.004°
Arg. of periapsis
345.5983°
True anomaly
Unknown
Mean anomaly
14.5077°
Eccentric anomaly
Unknown
Mean motion
3.7188 °/min
Orbital period
96.81 mins
BSTAR
0.00010751
Loading maneuver chart data...
Loading SW <> Apogee altitude chart data...
Loading historical data...
Loading historical data...
Loading historical data...
Loading historical data...
Loading historical data...
Loading historical data...
Loading historical data...

SKYSAT 2 Visibility forecast

Observer location: undefined°, undefined°

Span
Click to sort rows by Start time (UTC) header in descending order
Start Az.
Max El. time (UTC)
Max El. Az.
Max El.
End time (UTC)
End Az.
6 mins2025-07-03 07:51:32.718Z45.492° ENE2025-07-03 07:54:32.718Z99.712° ESE23.545°2025-07-03 07:57:32.718Z149.943° SSE
5 mins2025-07-03 09:28:32.718Z325.348° NNW2025-07-03 09:30:32.718Z282.089° WNW23.081°2025-07-03 09:33:32.718Z236.725° WSW
4 mins2025-07-03 18:45:32.718Z88.94° E2025-07-03 18:46:32.718Z70.098° E19.053°2025-07-03 18:49:32.718Z21.911° NNE
6 mins2025-07-03 20:19:32.718Z205.37° SW2025-07-03 20:22:32.718Z268.883° W28.424°2025-07-03 20:25:32.718Z322.74° NNW
|